Lid_Strength_Index
6 5 5 4 4 4 4 5 7 1 -0 8 8 10 8 8 7 6 7 7 9 11 12 13 12 11 8 5 6 8 6 9 13 11 8 7 8 9 9 14 13 11 12 13
5 4 4 3 3 3 5 7 5 0 2 11 9 7 7 7 9 8 8 8 8 9 11 14 12 9 7 6 6 7 7 10 16 14 10 8 10 9 9 10 10 13 14 13
4 3 3 3 2 2 2 5 8 4 4 4 8 9 9 9 6 8 7 9 8 10 12 10 13 11 8 7 7 6 6 10 13 15 14 10 11 10 9 10 13 13 13 14
3 2 2 2 1 0 1 4 7 5 9 8 7 7 8 9 10 7 7 9 10 11 13 13 13 11 10 8 7 6 7 12 11 11 10 10 10 10 10 10 10 12 10 11
2 2 1 0 0 -0 2 7 8 5 7 6 7 8 9 10 9 10 10 11 10 9 12 12 13 11 10 10 8 8 8 12 11 13 11 10 11 10 10 10 10 10 10 10
2 1 0 -1 -1 -1 2 2 2 5 7 8 8 8 8 9 8 9 8 9 10 11 10 8 7 9 7 7 8 9 9 11 12 14 11 10 12 9 9 9 8 9 11 8
2 0 -1 -1 -1 -1 1 2 3 7 11 9 9 7 7 8 8 10 8 7 10 8 7 7 6 6 7 7 7 7 9 10 10 13 11 15 11 7 7 8 8 7 8 7
1 -0 -1 -1 -1 -1 1 1 4 6 10 9 8 7 8 7 8 9 9 7 7 6 8 10 11 10 9 9 8 8 7 9 13 14 13 12 11 9 9 10 10 7 7 7
0 -0 -1 -1 -1 -1 0 1 1 5 9 9 7 8 7 9 10 9 8 6 4 6 9 10 13 14 12 13 11 7 7 7 10 12 16 16 11 8 6 7 15 7 6 7
1 0 -0 -2 -1 -1 0 2 1 4 8 6 6 9 9 6 8 10 8 7 7 6 8 11 12 13 10 13 13 12 11 11 14 12 14 12 9 7 6 14 14 6 6 6
1 0 -1 -1 -1 -0 1 2 1 4 7 6 5 4 6 6 6 10 7 8 8 7 9 9 10 12 10 12 10 11 12 13 14 12 15 17 7 7 11 8 5 5 5 6
1 0 -1 -1 -1 -0 -0 3 1 1 6 6 2 3 2 2 3 5 5 7 8 6 8 8 7 11 9 11 15 8 13 10 12 11 12 7 6 6 5 4 5 5 6 6
1 0 -1 -0 -0 0 0 2 2 3 5 5 5 5 2 1 1 1 7 4 5 5 4 6 7 11 8 12 12 11 9 7 9 9 9 7 6 5 5 5 6 6 6 7
1 -0 -0 -0 -0 0 0 2 2 3 5 10 7 2 4 1 1 2 2 3 3 3 4 6 6 9 7 9 9 10 8 7 9 10 8 7 7 6 6 7 6 7 7 7
1 0 -0 0 0 0 0 -0 0 1 6 9 8 4 2 1 2 3 3 3 4 4 5 6 8 6 7 6 6 9 7 8 9 11 7 7 7 7 7 7 7 7 7 8
1 0 -0 -0 0 0 1 5 2 1 2 7 10 4 4 2 2 3 4 4 4 5 6 7 6 6 7 8 9 7 6 5 5 7 4 5 6 6 5 6 6 6 7 7
1 1 0 0 0 -0 4 5 3 2 2 6 9 9 4 3 3 4 4 4 5 5 6 7 7 7 7 7 9 7 6 5 4 4 4 6 5 7 6 6 6 7 7 7
1 1 0 0 2 2 3 2 1 2 3 5 9 10 8 4 6 6 4 5 5 6 7 6 8 6 6 9 7 7 5 5 5 4 3 3 5 5 6 5 6 7 8 8
1 1 1 0 1 5 4 1 1 1 3 7 7 11 12 5 6 6 5 4 8 4 6 6 6 8 10 8 6 7 6 6 5 4 4 5 5 6 6 7 7 8 8 8
1 0 2 6 2 1 1 2 4 4 3 3 7 6 10 6 6 7 6 5 7 10 8 5 9 9 6 6 5 5 5 5 3 5 6 5 6 7 7 7 7 7 8 8
1 4 4 2 1 2 3 6 7 6 7 6 6 6 8 3 8 8 6 8 7 11 10 10 10 10 7 5 4 4 4 4 4 4 4 4 6 6 7 7 7 7 7 9
2 3 2 2 3 5 8 8 7 7 9 6 7 7 6 5 3 7 6 9 7 13 7 10 12 9 6 5 6 6 5 5 5 5 6 6 6 6 6 6 6 7 7 8
-0 3 5 5 6 11 10 12 10 10 7 5 5 7 6 5 4 7 8 11 11 6 11 11 11 8 6 6 5 5 4 5 6 6 6 6 6 5 5 6 6 7 7 9
4 6 11 8 10 9 9 9 8 6 6 6 5 6 7 6 8 8 11 9 8 12 14 14 9 8 6 4 4 4 5 6 6 6 5 6 5 5 5 6 6 7 8 10
6 6 10 9 7 7 7 6 7 6 5 6 6 6 7 8 9 9 9 11 13 11 13 10 9 7 6 6 5 5 5 4 4 4 4 5 5 5 6 6 7 8 8 9
5 6 8 6 7 8 7 7 7 4 6 5 6 8 10 10 9 11 12 12 14 12 10 9 6 6 6 5 4 4 4 3 4 4 4 4 5 6 7 8 8 8 8 10
8 8 7 8 8 8 7 6 5 3 6 8 8 12 13 9 12 12 10 12 10 9 8 6 5 5 5 4 4 4 4 4 4 4 4 6 6 7 8 8 8 8 9 10